Time,TemperatureF,DewpointF,PressureIn,WindDirection,WindDirectionDegrees,WindSpeedMPH,WindSpeedGustMPH,Humidity,HourlyPrecipIn,Conditions,Clouds,dailyrainin,SoftwareType,DateUTC
2013-04-13 00:07:00,39.8,36.0,29.93,West,267,5.0,13.0,85,0.00,,,0.00,weatherlink.com 1.10,2013-04-13 05:07:00,
2013-04-13 00:22:00,39.7,36.0,29.93,WSW,252,9.0,11.0,85,0.00,,,0.00,weatherlink.com 1.10,2013-04-13 05:22:00,
2013-04-13 00:37:00,39.6,36.0,29.93,WSW,251,7.0,8.0,86,0.00,,,0.00,weatherlink.com 1.10,2013-04-13 05:37:00,
2013-04-13 00:52:00,39.5,36.0,29.94,West,273,6.0,9.0,86,0.00,,,0.00,weatherlink.com 1.10,2013-04-13 05:52:00,
2013-04-13 01:07:00,39.3,36.0,29.94,WSW,242,11.0,11.0,86,0.00,,,0.00,weatherlink.com 1.10,2013-04-13 06:07:00,
2013-04-13 01:22:00,39.4,35.0,29.95,West,269,4.0,16.0,83,0.00,,,0.00,weatherlink.com 1.10,2013-04-13 06:22:00,
2013-04-13 01:37:00,39.2,34.0,29.95,WNW,288,6.0,15.0,81,0.00,,,0.00,weatherlink.com 1.10,2013-04-13 06:37:00,
2013-04-13 02:07:00,38.9,34.0,29.94,West,268,4.0,12.0,82,0.00,,,0.00,weatherlink.com 1.10,2013-04-13 07:07:00,
2013-04-13 02:22:00,38.7,34.0,29.94,WSW,248,5.0,12.0,84,0.00,,,0.00,weatherlink.com 1.10,2013-04-13 07:22:00,
2013-04-13 02:52:00,38.8,34.0,29.93,WSW,255,6.0,16.0,82,0.00,,,0.00,weatherlink.com 1.10,2013-04-13 07:52:00,
2013-04-13 03:07:00,38.4,33.0,29.93,WSW,257,6.0,12.0,82,0.00,,,0.00,weatherlink.com 1.10,2013-04-13 08:07:00,
2013-04-13 03:22:00,38.4,33.0,29.93,WSW,248,11.0,12.0,82,0.00,,,0.00,weatherlink.com 1.10,2013-04-13 08:22:00,
2013-04-13 03:37:00,38.3,33.0,29.93,WSW,240,8.0,12.0,81,0.00,,,0.00,weatherlink.com 1.10,2013-04-13 08:37:00,
2013-04-13 03:52:00,38.0,34.0,29.93,SW,236,8.0,10.0,85,0.00,,,0.00,weatherlink.com 1.10,2013-04-13 08:52:00,
2013-04-13 04:07:00,38.1,34.0,29.93,SW,231,12.0,14.0,84,0.00,,,0.00,weatherlink.com 1.10,2013-04-13 09:07:00,
2013-04-13 04:22:00,38.2,33.0,29.93,WSW,256,12.0,14.0,81,0.00,,,0.00,weatherlink.com 1.10,2013-04-13 09:22:00,
2013-04-13 04:37:00,38.3,32.0,29.92,WSW,254,10.0,12.0,79,0.00,,,0.00,weatherlink.com 1.10,2013-04-13 09:37:00,
2013-04-13 04:52:00,38.2,32.0,29.93,WSW,239,5.0,14.0,79,0.00,,,0.00,weatherlink.com 1.10,2013-04-13 09:52:00,
2013-04-13 05:07:00,37.9,32.0,29.93,SW,234,11.0,12.0,80,0.00,,,0.00,weatherlink.com 1.10,2013-04-13 10:07:00,
2013-04-13 05:22:00,37.8,32.0,29.93,WSW,237,9.0,11.0,81,0.00,,,0.00,weatherlink.com 1.10,2013-04-13 10:22:00,
2013-04-13 05:37:00,37.9,33.0,29.93,WSW,239,6.0,14.0,81,0.00,,,0.00,weatherlink.com 1.10,2013-04-13 10:37:00,
2013-04-13 05:52:00,38.0,33.0,29.93,WSW,255,7.0,13.0,81,0.00,,,0.00,weatherlink.com 1.10,2013-04-13 10:52:00,
2013-04-13 06:07:00,38.0,33.0,29.93,West,279,8.0,14.0,81,0.00,,,0.00,weatherlink.com 1.10,2013-04-13 11:07:00,
2013-04-13 06:23:00,38.0,31.0,29.93,WNW,284,14.0,20.0,76,0.00,,,0.00,weatherlink.com 1.10,2013-04-13 11:23:00,
2013-04-13 06:53:00,37.1,30.0,29.94,WNW,298,11.0,14.0,75,0.00,,,0.00,weatherlink.com 1.10,2013-04-13 11:53:00,
2013-04-13 07:08:00,37.1,30.0,29.94,WSW,246,7.0,15.0,76,0.00,,,0.00,weatherlink.com 1.10,2013-04-13 12:08:00,
2013-04-13 07:23:00,37.1,30.0,29.95,WSW,246,10.0,16.0,76,0.00,,,0.00,weatherlink.com 1.10,2013-04-13 12:23:00,
2013-04-13 07:38:00,37.1,31.0,29.96,WSW,242,7.0,13.0,77,0.00,,,0.00,weatherlink.com 1.10,2013-04-13 12:38:00,
2013-04-13 07:53:00,37.0,31.0,29.97,WSW,258,10.0,15.0,79,0.00,,,0.00,weatherlink.com 1.10,2013-04-13 12:53:00,
2013-04-13 08:08:00,36.6,30.0,29.97,WNW,302,5.0,16.0,78,0.00,,,0.00,weatherlink.com 1.10,2013-04-13 13:08:00,
2013-04-13 08:23:00,36.2,30.0,29.97,NW,321,5.0,14.0,78,0.00,,,0.00,weatherlink.com 1.10,2013-04-13 13:23:00,
2013-04-13 08:38:00,36.2,30.0,29.98,West,271,10.0,18.0,77,0.00,,,0.00,weatherlink.com 1.10,2013-04-13 13:38:00,
2013-04-13 08:53:00,35.7,27.0,29.98,WSW,257,6.0,21.0,72,0.00,,,0.00,weatherlink.com 1.10,2013-04-13 13:53:00,
2013-04-13 09:08:00,36.0,27.0,29.98,West,271,11.0,24.0,70,0.00,,,0.00,weatherlink.com 1.10,2013-04-13 14:08:00,
2013-04-13 09:23:00,36.1,27.0,29.99,NW,307,11.0,21.0,69,0.00,,,0.00,weatherlink.com 1.10,2013-04-13 14:23:00,
2013-04-13 09:38:00,36.6,26.0,30.00,WNW,284,13.0,17.0,66,0.00,,,0.00,weatherlink.com 1.10,2013-04-13 14:38:00,
2013-04-13 09:53:00,37.7,25.0,30.00,NW,314,15.0,21.0,60,0.00,,,0.00,weatherlink.com 1.10,2013-04-13 14:53:00,
2013-04-13 10:08:00,37.8,25.0,30.00,WNW,297,5.0,19.0,61,0.00,,,0.00,weatherlink.com 1.10,2013-04-13 15:08:00,
2013-04-13 10:38:00,38.9,26.0,30.01,WNW,282,9.0,23.0,61,0.00,,,0.00,weatherlink.com 1.10,2013-04-13 15:38:00,
2013-04-13 10:53:00,39.7,27.0,30.01,West,277,6.0,19.0,60,0.00,,,0.00,weatherlink.com 1.10,2013-04-13 15:53:00,
2013-04-13 11:08:00,40.8,27.0,30.02,WSW,255,9.0,20.0,59,0.00,,,0.00,weatherlink.com 1.10,2013-04-13 16:08:00,
2013-04-13 11:23:00,40.7,27.0,30.02,NW,311,3.0,18.0,59,0.00,,,0.00,weatherlink.com 1.10,2013-04-13 16:23:00,
2013-04-13 11:38:00,40.7,27.0,30.01,NW,311,4.0,19.0,59,0.00,,,0.00,weatherlink.com 1.10,2013-04-13 16:38:00,
2013-04-13 11:53:00,41.1,28.0,30.02,West,259,5.0,19.0,59,0.00,,,0.00,weatherlink.com 1.10,2013-04-13 16:53:00,
2013-04-13 12:08:00,42.0,28.0,30.02,WSW,241,7.0,16.0,57,0.00,,,0.00,weatherlink.com 1.10,2013-04-13 17:08:00,
2013-04-13 12:23:00,42.4,28.0,30.01,West,264,12.0,14.0,57,0.00,,,0.00,weatherlink.com 1.10,2013-04-13 17:23:00,
2013-04-13 12:38:00,43.7,29.0,30.01,West,279,7.0,20.0,56,0.00,,,0.00,weatherlink.com 1.10,2013-04-13 17:38:00,
2013-04-13 13:38:00,44.9,29.0,30.00,WNW,284,8.0,17.0,54,0.00,,,0.00,weatherlink.com 1.10,2013-04-13 18:38:00,
2013-04-13 13:53:00,46.2,31.0,30.00,SW,234,13.0,19.0,55,0.00,,,0.00,weatherlink.com 1.10,2013-04-13 18:53:00,
2013-04-13 14:09:00,47.4,31.0,30.00,WNW,289,12.0,16.0,54,0.00,,,0.00,weatherlink.com 1.10,2013-04-13 19:09:00,
2013-04-13 14:23:00,46.7,31.0,30.00,WSW,242,10.0,19.0,54,0.00,,,0.00,weatherlink.com 1.10,2013-04-13 19:23:00,
2013-04-13 14:38:00,47.0,31.0,30.00,WSW,250,11.0,16.0,54,0.00,,,0.00,weatherlink.com 1.10,2013-04-13 19:38:00,
2013-04-13 14:53:00,47.7,31.0,30.00,WSW,257,9.0,16.0,52,0.00,,,0.00,weatherlink.com 1.10,2013-04-13 19:53:00,
2013-04-13 15:09:00,48.4,32.0,30.00,West,266,11.0,16.0,53,0.00,,,0.00,weatherlink.com 1.10,2013-04-13 20:09:00,
2013-04-13 15:39:00,49.4,32.0,29.99,WSW,240,14.0,17.0,51,0.00,,,0.00,weatherlink.com 1.10,2013-04-13 20:39:00,
2013-04-13 15:54:00,48.5,32.0,29.98,SW,234,11.0,18.0,54,0.00,,,0.00,weatherlink.com 1.10,2013-04-13 20:54:00,
2013-04-13 16:09:00,48.5,32.0,29.98,WSW,244,12.0,19.0,53,0.00,,,0.00,weatherlink.com 1.10,2013-04-13 21:09:00,
2013-04-13 16:24:00,48.3,32.0,29.98,West,270,9.0,16.0,53,0.00,,,0.00,weatherlink.com 1.10,2013-04-13 21:24:00,
2013-04-13 16:39:00,49.2,32.0,29.98,WSW,248,9.0,16.0,51,0.00,,,0.00,weatherlink.com 1.10,2013-04-13 21:39:00,
2013-04-13 16:54:00,49.1,31.0,29.98,WSW,243,8.0,14.0,51,0.00,,,0.00,weatherlink.com 1.10,2013-04-13 21:54:00,
2013-04-13 17:09:00,49.3,33.0,29.98,SW,233,9.0,14.0,54,0.00,,,0.00,weatherlink.com 1.10,2013-04-13 22:09:00,
2013-04-13 17:24:00,49.6,34.0,29.98,SW,221,9.0,14.0,55,0.00,,,0.00,weatherlink.com 1.10,2013-04-13 22:24:00,
2013-04-13 17:39:00,49.6,32.0,29.98,WSW,246,7.0,12.0,51,0.00,,,0.00,weatherlink.com 1.10,2013-04-13 22:39:00,
2013-04-13 17:54:00,49.2,33.0,29.98,SW,236,10.0,17.0,54,0.00,,,0.00,weatherlink.com 1.10,2013-04-13 22:54:00,
2013-04-13 18:09:00,49.0,34.0,29.98,SW,219,10.0,14.0,57,0.00,,,0.00,weatherlink.com 1.10,2013-04-13 23:09:00,
2013-04-13 18:24:00,48.7,33.0,29.98,WSW,254,5.0,12.0,55,0.00,,,0.00,weatherlink.com 1.10,2013-04-13 23:24:00,
2013-04-13 18:39:00,48.5,34.0,29.98,SW,227,9.0,13.0,57,0.00,,,0.00,weatherlink.com 1.10,2013-04-13 23:39:00,
2013-04-13 18:54:00,47.8,34.0,29.98,WSW,248,4.0,10.0,59,0.00,,,0.00,weatherlink.com 1.10,2013-04-13 23:54:00,
2013-04-13 19:09:00,47.8,34.0,29.97,SW,236,5.0,8.0,60,0.00,,,0.00,weatherlink.com 1.10,2013-04-14 00:09:00,
2013-04-13 19:24:00,47.3,36.0,29.97,SW,229,4.0,8.0,64,0.00,,,0.00,weatherlink.com 1.10,2013-04-14 00:24:00,
2013-04-13 19:39:00,47.3,35.0,29.97,WSW,238,6.0,7.0,63,0.00,,,0.00,weatherlink.com 1.10,2013-04-14 00:39:00,
2013-04-13 19:54:00,46.4,37.0,29.97,WSW,238,5.0,8.0,70,0.00,,,0.00,weatherlink.com 1.10,2013-04-14 00:54:00,
2013-04-13 20:09:00,46.3,37.0,29.97,WSW,244,4.0,6.0,70,0.00,,,0.00,weatherlink.com 1.10,2013-04-14 01:09:00,
2013-04-13 20:24:00,45.6,38.0,29.96,SSW,211,4.0,7.0,75,0.00,,,0.00,weatherlink.com 1.10,2013-04-14 01:24:00,
2013-04-13 20:39:00,45.4,38.0,29.97,SSW,211,0.0,4.0,74,0.00,,,0.00,weatherlink.com 1.10,2013-04-14 01:39:00,
2013-04-13 20:54:00,45.9,37.0,29.97,SSW,211,1.0,3.0,72,0.00,,,0.00,weatherlink.com 1.10,2013-04-14 01:54:00,
2013-04-13 21:09:00,45.6,37.0,29.97,SSW,211,1.0,2.0,73,0.00,,,0.00,weatherlink.com 1.10,2013-04-14 02:09:00,
2013-04-13 21:24:00,45.8,37.0,29.97,SSW,211,0.0,2.0,72,0.00,,,0.00,weatherlink.com 1.10,2013-04-14 02:24:00,
2013-04-13 21:39:00,45.7,38.0,29.97,SSW,208,2.0,5.0,74,0.00,,,0.00,weatherlink.com 1.10,2013-04-14 02:39:00,
2013-04-13 21:54:00,45.2,38.0,29.97,SSW,208,1.0,4.0,75,0.00,,,0.00,weatherlink.com 1.10,2013-04-14 02:54:00,
2013-04-13 22:09:00,44.6,37.0,29.98,SSW,208,0.0,3.0,74,0.00,,,0.00,weatherlink.com 1.10,2013-04-14 03:09:00,
2013-04-13 22:24:00,44.1,37.0,29.98,SSW,208,2.0,2.0,77,0.00,,,0.00,weatherlink.com 1.10,2013-04-14 03:24:00,
2013-04-13 22:39:00,43.7,37.0,29.97,SSW,208,2.0,3.0,78,0.00,,,0.00,weatherlink.com 1.10,2013-04-14 03:39:00,
2013-04-13 22:54:00,43.4,37.0,29.97,SSW,202,0.0,4.0,79,0.00,,,0.00,weatherlink.com 1.10,2013-04-14 03:54:00,
2013-04-13 23:09:00,43.3,37.0,29.98,SSW,202,1.0,3.0,79,0.00,,,0.00,weatherlink.com 1.10,2013-04-14 04:09:00,
2013-04-13 23:24:00,43.1,37.0,29.97,SSW,202,2.0,4.0,80,0.00,,,0.00,weatherlink.com 1.10,2013-04-14 04:24:00,
2013-04-13 23:39:00,43.0,37.0,29.97,SSW,202,1.0,3.0,80,0.00,,,0.00,weatherlink.com 1.10,2013-04-14 04:39:00,
2013-04-13 23:54:00,43.2,37.0,29.97,South,189,0.0,5.0,80,0.00,,,0.00,weatherlink.com 1.10,2013-04-14 04:54:00,